Regional Weather Roundup
Issued by NWS Grand Forks, ND

Home | Current Version | Previous Version | Text Only | Print | Product List | Glossary Off
Versions: 1 2 3 4 5 6 7 8 9 10 11 12 13 14 15 16 17 18 19 20 21 22 23 24 25 26 27 28 29 30 31 32 33 34 35 36 37 38 39 40 41 42 43 44 45 46 47 48 49 50

000
ASUS43 KFGF 221210
RWRFGF
PRAIRIE TO PINES  WEATHER ROUNDUP
NATIONAL WEATHER SERVICE EASTERN NORTH DAKOTA/GRAND FORKS ND
600 AM CST WED FEB 22 2017

 **SATELLITE DATA USED TO AUGMENT SKY COVER AT AUTOMATED STATIONS**
 *****  WEATHER ACROSS EASTERN NORTH DAKOTA  *****

CITY           SKY/WX    TMP DP  RH WIND       PRES   REMARKS
GRAND FORKS    CLOUDY    33  29  85 N12       29.71R FOG     WCI  24
6HR MIN TEMP:  32; 6HR MAX TEMP:  33; 6HR PCP:  0.01;

GRAND FRKS AFB CLOUDY    32  32 100 N10       29.71R FOG     WCI  24
DEVILS LAKE    MIX PCPN  32  31  96 N10       29.71R FOG     WCI  24
6HR MIN TEMP:  32; 6HR MAX TEMP:  35; 6HR PCP:  0.01;

FARGO          CLOUDY    34  34 100 N13       29.68R FOG     WCI  25
WAHPETON ARPT  CLOUDY    34  32  93 N10       29.64R
$$

 ***** WEATHER ACROSS CENTRAL AND WESTERN NORTH DAKOTA  *****

CITY           SKY/WX    TMP DP  RH WIND       PRES   REMARKS
BISMARCK       LGT RAIN  35  34  96 NW5       29.70S
6HR MIN TEMP:  30; 6HR MAX TEMP:  35; 6HR PCP:  0.01;

MINOT          LGT SNOW  32  30  92 N16       29.74S FOG     WCI  21
6HR MIN TEMP:  32; 6HR MAX TEMP:  34; 6HR PCP: TRACE;

JAMESTOWN      FAIR      34  32  92 N8        29.65S
6HR MIN TEMP:  31; 6HR MAX TEMP:  35;

MINOT AFB      LGT SNOW  31  28  89 N15       29.74S FOG     WCI  20
GARRISON         N/A     32  31  96 N9        29.71R WCI  24
WILLISTON      LGT SNOW  32  31  96 N14       29.79R FOG     WCI  22
6HR MIN TEMP:  32; 6HR MAX TEMP:  34; 6HR PCP:  0.12;

DICKINSON      LGT SNOW  32  31  96 NE12      29.66F FOG     WCI  23
6HR MIN TEMP:  31; 6HR MAX TEMP:  35; 6HR PCP:  0.07;

HETTINGER      CLOUDY    38  36  92 NE5       29.66F
6HR MIN TEMP:  33; 6HR MAX TEMP:  40; 6HR PCP:  0.05;

$$

 *****  OTHER AIRPORT OBSERVATIONS IN OUR AREA  *****

CITY           SKY/WX    TMP DP  RH WIND       PRES   REMARKS
WALHALLA       NOT AVBL
GRAFTON AIRPOR CLOUDY    32  32 100 N12       29.75R FOG     WCI  23
VALLEY CITY AR FAIR      32  32 100 N9        29.67F WCI  24
CANDO          NOT AVBL
CAVALIER APRT  LGT SNOW  32  32 100 N10       29.75R WCI  24
GWINNER        FAIR      36  36 100 N9        29.65R
SHEYENNE NWR     N/A     34  34 100 N3        29.95S
ROLLA          MIX PCPN  32  32 100 NE10      29.76R WCI  24
 ***** THE ABOVE OBSERVATIONS ARE NON NWS ARE NOT QUALITY
       CONTROLLED AND MAY MIS-REPORT RAIN FOR SNOW...
$$

  *****  WEATHER ACROSS NORTHERN MINNESOTA  *****

CITY           SKY/WX    TMP DP  RH WIND       PRES   REMARKS
FLAG ISLAND    LGT SNOW  34  30  86 N3        29.71R
WARROAD        LGT SNOW  34  28  80 N6        29.73R
ROSEAU         LGT SNOW  34  28  80 N5        29.72R
HALLOCK        MIX PCPN  34  34 100 N12       29.74R
THF RVR FALLS  LGT RAIN  33  32  96 N7        29.70R
6HR MIN TEMP:  32; 6HR MAX TEMP:  33; 6HR PCP: TRACE;

BAUDETTE       FLURRIES  32  30  92 N5        29.70R
6HR MIN TEMP:  29; 6HR MAX TEMP:  32; 6HR PCP: TRACE;

WASKISH        MIX PCPN  34  32  93 NE6       29.68R
CROOKSTON      CLOUDY    32  32 100 N10       29.71R FOG     WCI  24
GREENBUSH NDAW   N/A     32  32 100 N6          N/A
$$
  *****  WEATHER ACROSS CENTRAL AND WEST MINNESOTA  *****

CITY           SKY/WX    TMP DP  RH WIND       PRES   REMARKS
FOSSTON        MIX PCPN  32  30  93 N6        29.66F VSB 3/4
BEMIDJI        CLOUDY    33  33 100 CALM      29.66R FOG
PARK RAPIDS    MOCLDY    36  33  89 N6        29.63S
6HR MIN TEMP:  32; 6HR MAX TEMP:  36;

ELBOW LAKE     FAIR      34  33  99 CALM      29.61F
WADENA         FAIR      34  34 100 N8        29.62R
DETROIT LAKES  FAIR      36  36 100 NE5       29.63F FOG
MOORHEAD       CLOUDY    32  32 100 N10       29.67R FOG     WCI  24
FERGUS FALLS   FAIR      36  36 100 N5        29.67R
MORRIS MN      FAIR      34  34 100 N3        29.59F
STAPLES        FOG       30  30 100 CALM      29.63R VSB 1
$$
  *****  WEATHER ELSEWHERE ACROSS MINNESOTA  *****

CITY           SKY/WX    TMP DP  RH WIND       PRES   REMARKS
DULUTH         FAIR      37  35  92 NE6       29.61F
6HR MIN TEMP:  34; 6HR MAX TEMP:  42;

INTRNTL FALLS  CLOUDY    33  30  88 NE6       29.66F
6HR MIN TEMP:  30; 6HR MAX TEMP:  34; 6HR PCP: TRACE;

ELY            CLOUDY    32  32 100 CALM      29.63F
CLOQUET        CLOUDY    37  36  93 N6        29.61F
WHEATON        FAIR      34  34 100 CALM      29.66R FOG
BRAINERD       FAIR      33  33 100 N5        29.62F FOG
6HR MIN TEMP:  30; 6HR MAX TEMP:  34; 6HR PCP: TRACE;

HIBBING        FAIR      30  30 100 CALM      29.63S FOG
6HR MIN TEMP:  30; 6HR MAX TEMP:  38;

ALEXANDRIA     FAIR      36  36 100 E6        29.60S
6HR MIN TEMP:  35; 6HR MAX TEMP:  40;

SAINT CLOUD    FAIR      36  36 100 N5        29.61R FOG
6HR MIN TEMP:  32; 6HR MAX TEMP:  37;

MINNEAPOLIS    MOCLDY    39  36  89 N6        29.59R
6HR MIN TEMP:  39; 6HR MAX TEMP:  45;

$$

  *****  WEATHER ACROSS SOUTH DAKOTA  *****

CITY           SKY/WX    TMP DP  RH WIND       PRES   REMARKS
SIOUX FALLS    FAIR      37  33  85 W3        29.61R
6HR MIN TEMP:  34; 6HR MAX TEMP:  50; 6HR PCP: TRACE;

BROOKINGS      FAIR      38  35  89 CALM      29.60S
WATERTOWN      MOCLDY    38  37  97 SW7       29.61R
6HR MIN TEMP:  37; 6HR MAX TEMP:  53; 6HR PCP:  0.02;

HURON          LGT RAIN  44  41  89 S7        29.63S
6HR MIN TEMP:  37; 6HR MAX TEMP:  49; 6HR PCP: TRACE;

SISSETON         N/A     36  36 100 NW7       29.62R
ABERDEEN       FAIR      36  32  85 NW3       29.66R
6HR MIN TEMP:  35; 6HR MAX TEMP:  42;

MITCHELL       CLOUDY    45  38  76 W12       29.64R
PIERRE         FAIR      46  37  71 W10       29.62R
6HR MIN TEMP:  41; 6HR MAX TEMP:  51; 6HR PCP: TRACE;

MOBRIDGE       FAIR      37  33  85 N12       29.61F
RAPID CITY     FAIR      44  32  62 NW10      29.70R
6HR MIN TEMP:  41; 6HR MAX TEMP:  50; 6HR PCP:  0.01;

$$

  *****  SOME WEATHER IN NEARBY STATES *****

CITY           SKY/WX    TMP DP  RH WIND       PRES   REMARKS
GLASGOW MT     LGT SNOW  31  29  92 NW9       29.83R FOG     WCI  23
6HR MIN TEMP:  31; 6HR MAX TEMP:  33; 6HR PCP:  0.05;

GREAT FALLS MT CLOUDY    31  29  92 SW8       29.84R WCI  23
6HR MIN TEMP:  31; 6HR MAX TEMP:  33; 6HR PCP:  0.02;

CHEYENNE WY    FAIR      33  22  63 W16G24    29.91S WCI  23
6HR MIN TEMP:  33; 6HR MAX TEMP:  48;

SCOTTSBLUFF NE FAIR      42  29  59 W20       29.85R
6HR MIN TEMP:  40; 6HR MAX TEMP:  51;

OMAHA NE       FAIR      46  35  65 SE12      29.68F
6HR MIN TEMP:  44; 6HR MAX TEMP:  51;

DES MOINES IA  FAIR      48  32  53 S10       29.71F
6HR MIN TEMP:  47; 6HR MAX TEMP:  52;

DAVENPORT IA   CLOUDY    52  52 100 S10       29.78S FOG
6HR MIN TEMP:  44; 6HR MAX TEMP:  53;

CHICAGO IL     FOG       55  53  93 SW9       29.81F VSB 1/2
6HR MIN TEMP:  50; 6HR MAX TEMP:  56;

EAU CLAIRE WI  FAIR      38  36  92 NE5       29.60F
6HR MIN TEMP:  33; 6HR MAX TEMP:  46;

LA CROSSE WI   FAIR      43  36  76 S8        29.67S
6HR MIN TEMP:  43; 6HR MAX TEMP:  51;

$$

  *****  SOME NATIONAL WEATHER *****

CITY           SKY/WX    TMP DP  RH WIND       PRES   REMARKS
LA GUARDIA NY  CLOUDY    45  35  68 S7        30.05F
6HR MIN TEMP:  44; 6HR MAX TEMP:  46;

RALEIGH NC     MOCLDY    53  48  83 SE3       30.04S
6HR MIN TEMP:  51; 6HR MAX TEMP:  55;

ATLANTA GA     LGT RAIN  61  60  97 E10       29.88S FOG
6HR MIN TEMP:  60; 6HR MAX TEMP:  61; 6HR PCP:  0.17;

NEW ORLEANS LA FAIR      59  56  89 NW5       29.83R
6HR MIN TEMP:  55; 6HR MAX TEMP:  59;

OKLAHOMA CITY  FAIR      42  36  79 S8        29.86F
6HR MIN TEMP:  40; 6HR MAX TEMP:  49;

ALBUQUERQUE NM FAIR      43  32  65 SE8       30.14F
6HR MIN TEMP:  43; 6HR MAX TEMP:  53;

SALT LAKE CITY CLOUDY    36  34  92 SE7       30.04S
6HR MIN TEMP:  35; 6HR MAX TEMP:  37; 6HR PCP:  0.03;

LOS ANGELES CA FAIR      55  52  89 W6        30.15S
6HR MIN TEMP:  54; 6HR MAX TEMP:  58;

BOISE ID       FAIR      32  26  78 SE5       30.03F
6HR MIN TEMP:  32; 6HR M


USA.gov is the U.S. government's official web portal to all federal, state and local government web resources and services.